Overview Statistics Trail Chart Weather Telemetry Raw packets
 

This is the latest recevied weather packets stored in our database for station/object IU1OLT-6. If no packets are shown the sender has not sent any weather packets the latest 10 day(s).

<< 1 2 3 4 5 >>
Time Temp. Humidity Pressure Rain* Wind** Luminosity Snow
1788672606 18.33° C 49% 1018.1 hPa 0 mm - - -
1788671646 18.33° C 48% 1018 hPa 0 mm - - -
1788670686 18.33° C 48% 1017.9 hPa 0 mm - - -
1788669726 17.78° C 47% 1017.7 hPa 0 mm - - -
1788668766 17.78° C 47% 1017.7 hPa 0 mm - - -
1788667806 18.33° C 49% 1017.7 hPa 0 mm - - -
1788666846 17.78° C 48% 1017.6 hPa 0 mm - - -
1788665934 18.33° C 49% 1017.6 hPa 0 mm - - -
1788665023 17.78° C 49% 1017.5 hPa 0 mm - - -
1788664062 17.78° C 49% 1017.5 hPa 0 mm - - -
1788663102 17.78° C 51% 1017.5 hPa 0 mm - - -
1788662142 17.78° C 50% 1017.6 hPa 0 mm - - -
1788661182 17.78° C 52% 1017.5 hPa 0 mm - - -
1788660222 17.78° C 52% 1017.6 hPa 0 mm - - -
1788659262 17.78° C 52% 1017.6 hPa 0 mm - - -
1788658302 17.78° C 55% 1017.6 hPa 0 mm - - -
1788657246 18.33° C 59% 1017.7 hPa 0 mm - - -
1788656286 18.33° C 58% 1017.7 hPa 0 mm - - -
1788655326 18.33° C 58% 1017.8 hPa 0 mm - - -
1788654414 17.78° C 57% 1017.9 hPa 0 mm - - -
1788653502 18.33° C 58% 1017.9 hPa 0 mm - - -
1788652590 18.33° C 58% 1018.1 hPa 0 mm - - -
1788651582 18.33° C 60% 1018 hPa 0 mm - - -
1788650622 18.33° C 59% 1018 hPa 0 mm - - -
1788649662 18.33° C 60% 1018 hPa 0 mm - - -

* Rain latest hour (hover to see other rain measurements)
** Current wind speed in m/s (hover to see current wind gust speed)